sat.trackr.live / text

‹ back to catalog

TIANMU-1 19

NORAD 58660 · 2023-208A

PAYLOAD ACTIVE UNKNOWN

§ Identity

Operator
Country
PRC
Launch date
2023-12-27
Launch site
JSC
Launch vehicle
Mass (kg)
RCS (m²)

Purposes: earth_obs

External: N2YO · Heavens-Above · Gunter

§ Orbital elements

Epoch: 2026-09-19T21:58:46.854048Z

Period
93.94 min
Inclination
97.4573°
Eccentricity
0.0004346
Mean motion
15.32860086 rev/d
Perigee alt
464.3 km
Apogee alt
470.3 km
Semi-major
6,845.4 km
B*
1.7913e-4
RAAN
19.8292°
Arg perigee
356.3584°
Mean anomaly
3.7626°
Rev number
15,183

§ Raw data

TIANMU-1 191 58660U 23208A   26262.91582007  .00005606  00000+0  17913-3 0  99902 58660  97.4573  19.8292 0004346 356.3584   3.7626 15.32860086151835

JSON: /api/v1/satellites/58660 · /tle

For live sub-satellite position, see the globe view (requires WebGL).

§ Visibility from observer

Set your observer location to see the next 7 days of passes ≥ 10°. The values pass through the URL so the page stays shareable.

No JS? Fill the form by hand. The geolocation button needs JavaScript.